Weather Roundup
Issued by NWS Springfield, MO

Home | Current Version | Previous Version | Text Only | Print | Product List | Glossary On
Versions: 1 2 3 4 5 6 7 8 9 10 11 12 13 14 15 16 17 18 19 20 21 22 23 24 25 26 27 28 29 30 31 32 33 34 35 36 37 38 39 40 41 42 43 44 45 46 47 48 49 50
000
NZUS99 KSGF 270559
HRRSGF

HOURLY WEATHER
NATIONAL WEATHER SERVICE SPRINGFIELD MO
100 AM CDT MON APR 27 2015

......SGF CWA......

CITY           SKY/WX    TMP DP  RH WIND       PRES   REMARKS
SPRINGFIELD    CLOUDY    51  37  58 E12       29.96R
6HR MIN TEMP:  48; 6HR MAX TEMP:  55;

JOPLIN         CLOUDY    52  43  71 E8        29.95R
6HR MIN TEMP:  51; 6HR MAX TEMP:  53;

WEST PLAINS    MOCLDY    49  36  61 NE9       29.98R
6HR MIN TEMP:  48; 6HR MAX TEMP:  60;

ROLLA          PTCLDY    47  36  65 NE9       30.00S
6HR MIN TEMP:  46; 6HR MAX TEMP:  58;

OSAGE BEACH    MOCLDY    50  34  53 E9        30.01S

......SURROUNDING SGF CWA......

CITY           SKY/WX    TMP DP  RH WIND       PRES   REMARKS
CHANUTE        CLOUDY    53  40  61 NE10      29.95S
PARSONS        CLOUDY    53  46  77 NE6       29.94F
COFFEYVILLE    CLOUDY    52  46  80 NE8       29.93R
EMPORIA        MOCLDY    49  39  68 NE9       29.99F
SILOAM SPRINGS CLOUDY   N/A N/A N/A E6        29.90S
HARRISON AR    CLOUDY    50  47  89 SE3       29.95R
NEAR YELLVILLE MOCLDY    48  46  93 NE3       29.94R

......KANSAS AND MISSOURI......

CITY           SKY/WX    TMP DP  RH WIND       PRES   REMARKS
KANSAS CTY INT PTCLDY    47  39  74 NE8       30.03S
DOWNTOWN KC    CLEAR     50  38  63 E7        30.03R
COLUMBIA       CLEAR     45  37  73 NE8       30.03S
SEDALIA        PTCLDY    48  35  60 E7        30.04S
ST JOSEPH      PTCLDY    51  33  50 NE12      30.06S
ST LOUIS       PTCLDY    50  35  56 NE5       30.05R
SPIRIT OF STL  CLEAR     43  40  89 CALM      30.04S
KIRKSVILLE     CLEAR     45  33  63 NE5       30.09R
WICHITA        CLOUDY    53  43  68 NE13      29.96R
TOPEKA         PTCLDY    47  39  74 N3        30.04R
OLATHE         CLEAR     49  36  61 E8        30.02R

......TENNESSEE......

CITY           SKY/WX    TMP DP  RH WIND       PRES   REMARKS
MEMPHIS        MOCLDY    55  47  74 NE8       29.90R
NASHVILLE      CLEAR     49  46  90 N3        29.90S

......ARKANSAS.......

CITY           SKY/WX    TMP DP  RH WIND       PRES   REMARKS
FAYETTEVILLE   CLOUDY    54  47  77 E8        29.90R
FT SMITH       CLOUDY    59  48  67 E13G21    29.89R
LITTLE ROCK    CLOUDY    57  48  72 NE7       29.91R

......OKLAHOMA.......

CITY           SKY/WX    TMP DP  RH WIND       PRES   REMARKS
TULSA          CLOUDY    57  47  69 NE8       29.89R THUNDER
PONCA CITY     LGT RAIN  53  48  83 NE13      29.95R
MCALESTER      RAIN      63  61  93 N13       29.87R
OKLAHOMA CITY  CLOUDY    55  52  89 NE13      29.84R

......IOWA............

CITY           SKY/WX    TMP DP  RH WIND       PRES   REMARKS
DES MOINES     CLEAR     46  29  51 CALM      30.12R
QUAD CITIES    CLEAR     38  34  85 CALM      30.06S

......ILLINOIS........

CITY           SKY/WX    TMP DP  RH WIND       PRES   REMARKS
QUINCY         CLEAR     46  35  65 CALM      30.07R
CHICAGO        CLEAR     42  30  62 N12       30.05S



USA.gov is the U.S. government's official web portal to all federal, state and local government web resources and services.